Dewpoint
61 62 63 63 63 63 62 62 62 63 64 64 63 63 62 61 57 59 62 61 61 63 62 65 65 65 65 66 63 66 63 64 62
62 62 62 62 62 62 62 63 64 64 64 62 61 64 61 58 58 59 59 60 62 61 64 64 64 63 63 63 63 63 64 66 65
62 63 63 63 63 63 64 65 64 61 59 59 61 62 61 59 59 58 56 59 59 58 63 62 61 61 62 61 61 62 62 62 63
62 63 64 64 64 64 65 64 57 56 56 57 60 58 56 55 54 51 50 56 56 57 63 61 61 60 58 58 57 58 58 59 60
63 64 64 65 65 65 65 58 54 54 56 59 59 55 51 49 48 45 47 59 57 63 62 60 59 58 57 56 56 55 56 56 57
62 61 64 65 65 66 63 57 54 52 51 54 52 47 43 42 42 44 63 63 62 61 60 58 57 56 55 55 55 54 54 54 55
59 62 64 65 66 65 61 57 49 40 39 39 42 39 41 43 44 50 62 60 60 59 57 56 55 54 53 53 53 52 52 52 52
62 60 62 61 64 61 58 50 45 41 38 36 36 39 43 45 48 59 61 59 57 55 54 53 52 52 51 52 51 50 50 51 51
61 61 60 59 59 58 55 48 41 36 33 33 36 39 42 45 50 57 58 56 54 51 51 51 51 50 50 50 49 49 49 50 50
61 61 61 61 58 57 54 47 39 34 31 31 35 39 42 44 49 53 56 55 52 50 49 49 48 48 48 49 48 48 49 49 50
61 61 62 61 60 57 54 47 40 35 32 30 34 39 43 44 47 49 52 52 50 47 46 46 46 46 46 47 45 45 46 47 48
60 61 62 62 60 57 53 45 38 35 31 30 33 39 42 43 44 45 46 46 46 46 44 43 45 42 43 43 42 41 42 44 45
59 60 62 61 60 57 51 45 40 36 33 30 30 36 41 41 41 42 42 41 39 43 39 40 38 39 39 39 39 38 40 40 42
58 59 59 60 59 56 50 45 41 37 33 30 28 32 37 40 39 38 38 38 36 35 38 37 35 35 36 36 37 37 37 37 39
59 57 58 59 59 55 50 45 39 37 34 24 27 29 32 38 38 34 34 33 34 34 33 31 32 36 36 35 35 36 37 37 36
60 58 57 58 58 56 50 46 38 34 32 30 30 30 29 33 36 34 32 31 30 31 26 25 24 27 32 31 33 34 35 37 35
61 59 58 57 57 56 52 44 38 35 32 33 32 29 28 28 33 34 32 30 28 27 25 24 24 25 24 30 31 31 33 35 36
61 60 59 57 56 55 52 45 41 36 32 33 34 31 30 29 28 31 32 29 28 26 25 24 23 23 23 28 33 35 34 35 37
62 60 60 58 55 54 52 47 43 41 35 32 31 30 32 29 27 27 28 28 27 26 25 23 23 23 25 27 30 31 31 32 35
62 61 60 58 55 54 52 48 44 42 40 35 29 27 26 26 29 28 26 26 25 25 25 23 23 23 23 24 27 29 30 32 33
Wind_Speed
10 9 8 10 11 11 10 10 9 9 8 7 5 5 4 6 6 6 6 7 7 9 9 10 11 11 13 8 4 11 3 7 3
10 10 9 9 9 9 9 9 9 8 6 5 5 5 3 3 4 4 5 8 7 7 9 12 15 16 17 17 17 17 19 24 4
11 10 9 9 9 9 9 10 8 7 6 6 6 5 2 3 4 3 4 5 5 6 8 12 13 15 17 17 17 17 17 18 20
11 10 9 8 10 9 9 10 8 7 6 6 7 5 3 2 4 2 2 6 3 4 12 15 15 14 12 13 13 13 14 15 15
12 9 8 6 9 8 11 11 9 9 9 8 7 5 2 4 3 2 4 5 3 11 14 14 13 13 13 13 12 11 13 13 14
13 8 10 6 5 11 11 11 10 10 8 7 5 3 1 1 1 1 5 13 15 14 13 13 12 13 12 12 12 12 12 13 13
10 10 9 7 10 10 11 10 9 6 5 5 4 1 2 1 1 4 8 13 13 13 13 11 11 12 11 11 11 11 11 12 12
11 10 10 10 10 9 10 9 6 4 4 4 3 2 1 2 4 9 11 13 12 10 11 10 11 11 10 10 10 10 10 11 11
13 11 10 10 10 9 9 7 6 6 5 5 4 4 4 3 4 9 12 13 11 10 9 9 9 9 9 9 9 9 9 10 10
13 12 12 11 10 10 9 8 7 7 5 4 4 5 5 6 5 8 10 12 11 10 8 8 8 8 7 8 8 7 8 9 8
14 13 13 12 11 10 9 9 8 6 6 5 5 5 5 5 6 7 8 10 10 10 8 7 7 6 6 6 6 7 6 7 7
14 14 14 14 12 11 10 9 8 7 5 6 6 6 7 7 7 7 8 8 8 9 8 7 7 5 5 4 3 4 4 4 5
17 16 15 15 13 12 12 11 10 9 7 6 6 6 7 8 8 7 7 7 8 8 7 7 6 5 4 3 3 3 4 2 3
19 18 17 17 15 14 13 12 11 10 8 7 6 7 8 9 8 9 9 8 8 8 8 8 5 4 3 3 3 3 3 2 4
22 19 18 18 17 16 15 14 12 10 9 8 7 6 7 8 9 10 9 10 9 9 8 8 6 5 3 1 2 4 5 5 5
24 22 21 21 20 19 18 15 15 10 11 8 6 6 7 10 11 11 11 11 11 10 9 7 6 6 4 1 3 5 5 6 5
25 25 22 24 21 21 20 19 14 10 14 9 8 6 8 11 13 13 13 13 11 11 10 9 8 5 4 1 1 3 4 5 6
27 26 24 23 22 22 24 24 22 17 15 16 7 6 9 10 10 15 14 14 12 12 11 10 8 6 4 4 4 2 3 5 6
25 25 24 23 21 23 25 22 24 19 17 13 15 5 2 7 6 10 14 14 15 15 12 12 10 8 6 2 3 1 3 5 7
24 25 24 23 23 25 22 22 25 23 19 16 8 11 6 5 6 6 10 14 15 14 14 12 11 10 8 7 5 2 4 7 10
Wind_Direction
119 113 93 82 87 92 100 103 101 103 102 94 81 77 116 208 104 92 87 64 65 59 44 53 63 96 55 68 83 28 39 293 243
125 120 116 111 110 115 117 113 107 104 100 98 89 78 115 149 113 93 73 69 64 61 72 81 70 64 57 54 50 46 41 43 87
137 134 133 132 131 131 127 116 105 99 95 92 90 84 90 142 100 79 70 45 75 76 92 83 73 68 65 58 53 49 48 45 45
148 146 143 151 142 141 132 114 106 101 92 100 103 90 40 90 79 79 72 25 70 88 100 91 82 69 67 62 57 50 49 45 46
153 152 157 156 149 148 127 120 110 108 103 104 109 110 156 96 112 81 47 318 112 109 97 88 83 79 71 70 64 61 60 57 54
162 143 151 156 159 136 134 127 118 115 103 101 112 211 86 124 105 102 53 102 99 91 84 79 80 80 75 71 67 62 61 60 55
187 161 165 161 141 137 138 140 141 182 148 135 174 179 154 153 142 116 130 108 101 95 90 89 86 82 78 75 67 63 58 56 55
197 177 181 177 176 170 167 165 186 174 167 157 159 141 170 143 145 117 133 121 110 104 101 99 94 90 87 83 70 58 59 61 54
195 197 197 195 195 192 194 188 176 174 178 173 165 167 167 166 160 108 103 115 112 105 103 102 100 95 88 81 67 63 61 57 53
207 206 199 204 199 199 196 195 186 185 178 177 179 177 172 172 168 130 115 118 119 117 116 116 113 105 100 90 74 67 63 57 57
209 208 206 206 202 203 201 198 195 193 192 186 183 178 175 174 172 153 129 115 127 131 129 127 117 107 108 98 79 64 53 50 47
209 205 203 208 203 203 200 195 195 190 191 194 189 186 183 181 178 178 161 143 121 140 134 136 124 116 103 99 75 63 59 54 40
212 211 208 209 203 201 200 194 197 200 197 192 195 193 192 191 184 181 181 175 159 132 136 138 135 126 105 81 47 43 23 19 10
218 217 212 208 204 201 198 196 198 198 197 200 196 200 200 198 189 189 187 179 184 175 133 128 120 120 105 69 37 27 8 327 311
212 218 216 209 206 201 196 195 194 201 194 190 200 202 210 208 206 197 191 187 190 193 182 171 152 126 119 58 352 325 320 314 299
212 214 211 209 208 205 198 194 186 188 183 171 200 209 217 219 212 206 204 197 199 196 194 200 199 173 145 77 334 319 309 296 287
213 213 210 208 207 204 198 189 185 192 187 196 194 211 211 222 216 209 209 207 201 205 204 203 205 204 210 124 22 325 322 308 294
219 215 206 208 207 203 196 195 190 190 197 202 196 191 223 176 198 215 214 213 208 210 206 206 203 202 196 190 157 64 344 323 312
226 222 216 208 205 200 200 198 200 186 191 198 223 228 158 195 189 215 217 217 216 211 205 205 203 199 201 149 74 62 324 307 306
222 222 216 210 204 209 201 202 206 203 192 195 172 210 216 242 224 191 200 218 221 215 211 208 206 198 194 191 161 183 295 304 305